TimeCST,TemperatureF,Dew PointF,Humidity,Sea Level PressureIn,VisibilityMPH,Wind Direction,Wind SpeedMPH,Gust SpeedMPH,PrecipitationIn,Events,Conditions,WindDirDegrees,DateUTC
12:15 AM,21.2,15.8,80,30.16,10.0,NW,12.7,16.1,N/A,,Overcast,320,2011-12-16 06:15:00
12:35 AM,21.2,15.8,80,30.18,10.0,NNW,10.4,19.6,N/A,,Overcast,330,2011-12-16 06:35:00
12:55 AM,21.2,15.8,80,30.19,10.0,NNW,10.4,-,N/A,,Overcast,340,2011-12-16 06:55:00
1:15 AM,21.2,14.0,74,30.19,10.0,NNW,11.5,-,N/A,,Overcast,340,2011-12-16 07:15:00
2:15 AM,21.2,15.8,80,30.22,10.0,NNW,5.8,-,N/A,,Overcast,330,2011-12-16 08:15:00
2:35 AM,21.2,15.8,80,30.24,10.0,WNW,6.9,-,N/A,,Overcast,300,2011-12-16 08:35:00
3:15 AM,19.4,15.8,86,30.25,9.0,WNW,6.9,-,N/A,,Overcast,300,2011-12-16 09:15:00
4:15 AM,19.4,15.8,86,30.26,3.0,West,4.6,-,N/A,,Clear,280,2011-12-16 10:15:00
4:35 AM,19.4,15.8,86,30.26,6.0,West,6.9,-,N/A,,Partly Cloudy,280,2011-12-16 10:35:00
4:55 AM,19.4,17.6,93,30.27,6.0,West,8.1,-,N/A,,Partly Cloudy,260,2011-12-16 10:55:00
5:16 AM,19.4,15.8,86,30.27,7.0,WSW,5.8,-,N/A,,Clear,250,2011-12-16 11:16:00
5:35 AM,19.4,15.8,86,30.26,10.0,West,4.6,-,N/A,,Partly Cloudy,260,2011-12-16 11:35:00
6:35 AM,19.4,14.0,80,30.26,8.0,West,6.9,-,N/A,,Scattered Clouds,280,2011-12-16 12:35:00
6:55 AM,19.4,14.0,80,30.26,7.0,West,5.8,-,N/A,,Mostly Cloudy,280,2011-12-16 12:55:00
7:35 AM,17.6,15.8,93,30.27,10.0,West,9.2,-,N/A,,Overcast,270,2011-12-16 13:35:00
7:55 AM,17.6,15.8,93,30.27,10.0,West,9.2,-,N/A,,Overcast,260,2011-12-16 13:55:00
8:15 AM,17.6,14.0,86,30.27,10.0,West,11.5,-,N/A,,Overcast,270,2011-12-16 14:15:00
8:35 AM,17.6,14.0,86,30.28,10.0,West,9.2,-,N/A,,Overcast,270,2011-12-16 14:35:00
8:55 AM,17.6,15.8,93,30.28,10.0,West,9.2,-,N/A,,Overcast,260,2011-12-16 14:55:00
9:15 AM,17.6,14.0,86,30.29,7.0,West,9.2,-,N/A,,Mostly Cloudy,260,2011-12-16 15:15:00
9:35 AM,17.6,15.8,93,30.30,5.0,West,10.4,-,N/A,,Mostly Cloudy,270,2011-12-16 15:35:00
9:55 AM,17.6,14.0,86,30.30,5.0,West,10.4,-,N/A,,Mostly Cloudy,270,2011-12-16 15:55:00
10:15 AM,17.6,15.8,93,30.31,5.0,West,10.4,-,N/A,,Mostly Cloudy,270,2011-12-16 16:15:00
11:15 AM,19.4,15.8,86,30.31,5.0,West,10.4,-,N/A,,Overcast,270,2011-12-16 17:15:00
11:35 AM,19.4,14.0,80,30.30,3.0,West,8.1,-,N/A,,Overcast,270,2011-12-16 17:35:00
11:55 AM,19.4,15.8,86,30.30,2.5,West,9.2,-,N/A,,Mostly Cloudy,280,2011-12-16 17:55:00
12:15 PM,19.4,15.8,86,30.30,3.0,West,8.1,-,N/A,,Mostly Cloudy,270,2011-12-16 18:15:00
12:35 PM,19.4,15.8,86,30.30,2.5,WNW,8.1,-,N/A,,Mostly Cloudy,290,2011-12-16 18:35:00
12:55 PM,19.4,15.8,86,30.29,2.5,West,8.1,-,N/A,,Scattered Clouds,280,2011-12-16 18:55:00
1:15 PM,19.4,15.8,86,30.29,2.5,WNW,5.8,-,N/A,,Mostly Cloudy,300,2011-12-16 19:15:00
1:35 PM,19.4,15.8,86,30.29,2.0,West,6.9,-,N/A,,Mostly Cloudy,280,2011-12-16 19:35:00
2:15 PM,19.4,15.8,86,30.29,1.0,WNW,4.6,-,N/A,,Clear,300,2011-12-16 20:15:00
2:35 PM,19.4,15.8,86,30.29,1.5,West,8.1,-,N/A,,Clear,280,2011-12-16 20:35:00
2:55 PM,19.4,15.8,86,30.29,3.0,WNW,8.1,-,N/A,,Scattered Clouds,290,2011-12-16 20:55:00
3:35 PM,17.6,15.8,93,30.29,1.8,WNW,4.6,-,N/A,,Scattered Clouds,290,2011-12-16 21:35:00
3:55 PM,17.6,17.6,100,30.29,2.5,WNW,4.6,-,N/A,,Clear,290,2011-12-16 21:55:00
4:15 PM,17.6,15.8,93,30.29,4.0,WNW,3.5,-,N/A,,Clear,290,2011-12-16 22:15:00
4:35 PM,17.6,15.8,93,30.30,4.0,WNW,4.6,-,N/A,,Partly Cloudy,290,2011-12-16 22:35:00
4:55 PM,17.6,15.8,93,30.30,9.0,WNW,3.5,-,N/A,,Scattered Clouds,290,2011-12-16 22:55:00
5:15 PM,17.6,12.2,79,30.30,5.0,WNW,3.5,-,N/A,,Scattered Clouds,290,2011-12-16 23:15:00
5:35 PM,17.6,14.0,86,30.29,9.0,Calm,Calm,-,N/A,,Scattered Clouds,0,2011-12-16 23:35:00
5:55 PM,17.6,14.0,86,30.29,6.0,Calm,Calm,-,N/A,,Scattered Clouds,0,2011-12-16 23:55:00
6:15 PM,17.6,14.0,86,30.29,9.0,Calm,Calm,-,N/A,,Partly Cloudy,0,2011-12-17 00:15:00
6:35 PM,17.6,14.0,86,30.29,10.0,WSW,3.5,-,N/A,,Partly Cloudy,250,2011-12-17 00:35:00
6:55 PM,17.6,14.0,86,30.29,10.0,SW,3.5,-,N/A,,Mostly Cloudy,230,2011-12-17 00:55:00
7:15 PM,17.6,14.0,86,30.29,10.0,SW,3.5,-,N/A,,Mostly Cloudy,230,2011-12-17 01:15:00
7:55 PM,17.6,12.2,79,30.29,10.0,Calm,Calm,-,N/A,,Overcast,0,2011-12-17 01:55:00
8:15 PM,17.6,12.2,79,30.29,10.0,Calm,Calm,-,N/A,,Overcast,0,2011-12-17 02:15:00
8:35 PM,17.6,12.2,79,30.28,10.0,Calm,Calm,-,N/A,,Mostly Cloudy,0,2011-12-17 02:35:00
8:55 PM,15.8,14.0,93,30.28,10.0,Calm,Calm,-,N/A,,Overcast,0,2011-12-17 02:55:00
9:15 PM,15.8,10.4,79,30.28,10.0,Calm,Calm,-,N/A,,Overcast,0,2011-12-17 03:15:00
9:35 PM,15.8,14.0,93,30.27,10.0,Calm,Calm,-,N/A,,Overcast,0,2011-12-17 03:35:00
9:55 PM,14.0,14.0,100,30.27,10.0,Calm,Calm,-,N/A,,Overcast,0,2011-12-17 03:55:00
10:15 PM,12.2,10.4,92,30.27,10.0,Calm,Calm,-,N/A,,Mostly Cloudy,0,2011-12-17 04:15:00
10:35 PM,12.2,10.4,92,30.27,7.0,Calm,Calm,-,N/A,,Mostly Cloudy,0,2011-12-17 04:35:00
10:55 PM,6.8,3.2,85,30.27,10.0,Calm,Calm,-,N/A,,Mostly Cloudy,0,2011-12-17 04:55:00
11:15 PM,8.6,8.6,100,30.27,10.0,Calm,Calm,-,N/A,,Mostly Cloudy,0,2011-12-17 05:15:00
11:35 PM,8.6,6.8,92,30.26,9.0,Calm,Calm,-,N/A,,Overcast,0,2011-12-17 05:35:00
11:55 PM,8.6,1.4,73,30.26,10.0,South,3.5,-,N/A,,Overcast,190,2011-12-17 05:55:00